Location: La Oliva
(42.2466°N, 2.9955°E)
Time: 06:26:34
(UTC+00:00)

SPOT 1/Viking Rocket - Pass Details

Date: 22 April 2021
Orbit: 777 x 794 km, 98.4° (Epoch: 07 May)

Event Time Altitude Azimuth Distance (km) Brightness Sun altitude
Exits shadow 21:14:16 50° 205° (SSW) 1,011 3.9 -25.1°
Maximum altitude 21:15:27 64° 259° (WSW) 881 3.8 -25.2°
Drops below altitude 10° 21:20:38 10° 340° (NNW) 2,369 6.9 -25.8°
Sets 21:23:00 0° 344° (NNW) 3,301 7.8 -26.1°
